This is the latest recevied weather packets stored in our database for station/object N8TWM-13. If no packets are shown the sender has not sent any weather packets the latest 1 day(s).
| Time | Temp. | Humidity | Pressure | Rain* | Wind** | Luminosity | Snow |
|---|---|---|---|---|---|---|---|
| 1778038408 | 8.89° C | 97% | 1008.7 hPa | 4.83 mm | 0 m/s | 0 W/m² | - |
| 1778038105 | 8.89° C | 97% | 1008.8 hPa | 4.83 mm | 0 m/s | 0 W/m² | - |
| 1778037802 | 8.89° C | 97% | 1009 hPa | 4.83 mm | 0 m/s | 0 W/m² | - |
| 1778037499 | 8.89° C | 97% | 1009.1 hPa | 3.05 mm | 0 m/s | 0 W/m² | - |
| 1778037196 | 8.89° C | 97% | 1009.2 hPa | 3.05 mm | 0.45 m/s, 112° | 0 W/m² | - |
| 1778036897 | 8.89° C | 97% | 1009.2 hPa | 3.05 mm | 0 m/s | 0 W/m² | - |
| 1778036592 | 8.89° C | 97% | 1009.1 hPa | 1.78 mm | 0 m/s | 0 W/m² | - |
| 1778036288 | 8.89° C | 97% | 1009.4 hPa | 1.27 mm | 0 m/s | 0 W/m² | - |
| 1778035984 | 8.89° C | 97% | 1009.3 hPa | 3.05 mm | 0 m/s | 0 W/m² | - |
| 1778035682 | 8.89° C | 97% | 1009.2 hPa | 3.05 mm | 0 m/s | 0 W/m² | - |
| 1778035378 | 8.89° C | 97% | 1009.5 hPa | 3.05 mm | 0 m/s | 0 W/m² | - |
| 1778035074 | 8.89° C | 96% | 1009.4 hPa | 3.05 mm | 1.34 m/s, 318° | 0 W/m² | - |
| 1778034772 | 9.44° C | 96% | 1009.2 hPa | 3.05 mm | 2.68 m/s, 332° | 0 W/m² | - |
| 1778034468 | 9.44° C | 97% | 1009.1 hPa | 1.78 mm | 0.45 m/s, 9° | 0 W/m² | - |
| 1778034166 | 9.44° C | 96% | 1009.3 hPa | 3.05 mm | 0.45 m/s, 284° | 0 W/m² | - |
| 1778033864 | 10° C | 97% | 1009.2 hPa | 6.1 mm | 0 m/s | 0 W/m² | - |
| 1778033561 | 10° C | 97% | 1009.2 hPa | 7.87 mm | 0 m/s | 0 W/m² | - |
| 1778033257 | 10° C | 97% | 1009.2 hPa | 6.1 mm | 0 m/s | 0 W/m² | - |
| 1778032955 | 10° C | 96% | 1008.9 hPa | 6.1 mm | 0 m/s | 0 W/m² | - |
| 1778032653 | 10° C | 96% | 1008.9 hPa | 4.83 mm | 0 m/s | 0 W/m² | - |
| 1778032350 | 10° C | 96% | 1008.9 hPa | 4.83 mm | 0 m/s | 0 W/m² | - |
| 1778032047 | 10° C | 96% | 1008.4 hPa | 4.83 mm | 0 m/s | 0 W/m² | - |
| 1778031743 | 10° C | 96% | 1008.7 hPa | 3.05 mm | 0 m/s | 0 W/m² | - |
| 1778031441 | 10° C | 96% | 1008.8 hPa | 4.83 mm | 0 m/s | 0 W/m² | - |
| 1778031138 | 10° C | 96% | 1008.7 hPa | 4.83 mm | 0 m/s | 0 W/m² | - |
* Rain latest hour (hover to see other rain measurements)
** Current wind speed in m/s (hover to see current wind gust speed)